Location: Newark
(45.9000°N, 9.5667°E)
Time: 09:36:57
(UTC+00:00)

OTV 5 (USA 277) - Visible Passes

Search period start: 26 August 2019 00:00
Search period end: 05 September 2019 00:00
Orbit: 305 x 329 km, 54.5° (Epoch: 20 August)

Date Brightness Start Highest point End Pass type
(mag) Time Alt. Az. Time Alt. Az. Time Alt. Az.
26 Aug ? 19:58:48 10° W 20:01:19 33° NNW 20:02:59 17° NNE visible
27 Aug ? 18:38:50 10° SW 18:41:31 67° SE 18:44:12 10° ENE visible
27 Aug ? 20:13:56 10° WNW 20:16:04 20° NNW 20:17:20 15° NNE visible
28 Aug ? 18:53:27 10° WSW 18:56:05 48° NNW 18:58:43 10° NE visible
28 Aug ? 20:29:11 10° NW 20:30:54 15° N 20:31:29 14° N visible
29 Aug ? 19:08:26 10° W 19:10:47 25° NNW 19:13:07 10° NE visible
29 Aug ? 20:44:20 10° NW 20:45:30 13° N 20:45:30 13° N visible
30 Aug ? 19:23:39 10° WNW 19:25:34 17° NNW 19:27:29 10° NNE visible
30 Aug ? 20:59:10 10° NNW 20:59:26 11° NNW 20:59:26 11° NNW visible
31 Aug ? 19:38:53 10° NW 19:40:26 14° N 19:41:59 10° NNE visible
01 Sep ? 19:53:54 10° NNW 19:55:21 13° N 19:56:19 12° NNE visible
02 Sep ? 18:33:22 10° NW 18:35:06 15° N 18:36:51 10° NNE visible
02 Sep ? 20:08:32 10° NNW 20:10:09 15° N 20:10:09 15° N visible
03 Sep ? 18:48:31 10° NW 18:49:59 13° N 18:51:27 10° NNE visible
03 Sep ? 20:22:58 10° NNW 20:23:59 16° NNW 20:23:59 16° NNW visible
04 Sep ? 19:03:21 10° NNW 19:04:54 14° N 19:06:26 10° NE visible
04 Sep ? 20:37:21 10° NW 20:37:49 14° NW 20:37:49 14° NW visible
